Tel Aviv, Israel

1:35 AM IDT on October 18, 2017 (GMT +0300)
Ben Gurion

Weather History for LLBG - August, 2017

Change the Weather History Date:

Sunday, August 13, 2017

  Actual Average Record
Temperature  
Mean Temperature 84 °F -  
Max Temperature 91 °F 86 °F 96 °F (2002)
Min Temperature 78 °F 72 °F 73 °F (1996)
Cooling Degree Days 20    
Growing Degree Days 34 (Base 50)    
Moisture  
Dew Point 73 °F    
Average Humidity 68    
Maximum Humidity 79    
Minimum Humidity 48    
Precipitation  
Precipitation 0.00 in - - ()
Sea Level Pressure  
Sea Level Pressure 29.73 in    
Wind  
Wind Speed 5 mph ()    
Max Wind Speed 12 mph    
Max Gust Speed -    
Visibility 6.1 miles    
Events      
Averages and records for this station are not official NWS values.
T = Trace of Precipitation, MM = Missing Value Source: Averaged Metar Reports

Daily Weather History Graph

Daily Weather History Graph

Search for Another Location

Airport or City:

Trip Planner

Search our weather history database for the weather conditions in past years. The results will help you decide how hot, cold, wet, or windy it might be!

Date:

Astronomy

Aug. 13, 2017 Rise Set
Actual Time 6:03 AM IDT 7:26 PM IDT
Civil Twilight 5:37 AM IDT 7:52 PM IDT
Nautical Twilight 5:06 AM IDT 8:23 PM IDT
Astronomical Twilight 4:34 AM IDT 8:55 PM IDT
Moon 11:08 PM IDT (8/13) 11:21 AM IDT (8/13)
Length of Visible Light 14h 14m
Length of Day
13h 22m
Waning Gibbous, 68% of the Moon is Illuminated
Aug 13
Waning Gibbous
Aug 15
Last Quarter
Aug 21
New
Aug 29
First Quarter
Sep 6
Full

Hourly Weather History & Observations

Time (IDT) Temp. Heat Index Dew Point Humidity Pressure Visibility Wind Dir Wind Speed Gust Speed Precip Events Conditions
12:00 AM 82 °F - 73 °F 68% 29.73 in 6 mi 2.3 mph - -  
12:20 AM 82.4 °F 88.2 °F 73.4 °F 74% 29.71 in - Variable 1.2 mph - N/A   Clear
12:50 AM 82.4 °F 88.2 °F 73.4 °F 74% 29.71 in - Variable 1.2 mph - N/A   Clear
1:20 AM 80.6 °F 85.4 °F 73.4 °F 79% 29.71 in - SSE 4.6 mph - N/A   Clear
1:50 AM 80.6 °F 84.6 °F 71.6 °F 74% 29.71 in - SSE 6.9 mph - N/A   Clear
2:20 AM 80.6 °F 84.6 °F 71.6 °F 74% 29.71 in - SSE 5.8 mph - N/A   Clear
2:50 AM 80.6 °F 84.6 °F 71.6 °F 74% 29.71 in 6.2 mi South 4.6 mph - N/A   Partly Cloudy
3:00 AM 80 °F - 71 °F 67% 29.70 in 6 mi South 4.6 mph - -   Scattered Clouds
3:20 AM 80.6 °F 84.6 °F 71.6 °F 74% 29.68 in 6.2 mi South 4.6 mph - N/A   Partly Cloudy
3:50 AM 78.8 °F - 71.6 °F 78% 29.68 in 6.2 mi Variable 2.3 mph - N/A   Partly Cloudy
4:20 AM 78.8 °F - 71.6 °F 78% 29.68 in 6.2 mi Variable 3.5 mph - N/A   Partly Cloudy
4:50 AM 78.8 °F - 71.6 °F 78% 29.68 in 6.2 mi Variable 3.5 mph - N/A   Partly Cloudy
5:20 AM 78.8 °F - 71.6 °F 78% 29.68 in 6.2 mi SE 4.6 mph - N/A   Scattered Clouds
5:50 AM 78.8 °F - 69.8 °F 74% 29.71 in 6.2 mi SSE 4.6 mph - N/A   Partly Cloudy
6:00 AM 79 °F - 71 °F 69% 29.71 in 6 mi SSE 4.6 mph - -   Scattered Clouds
6:20 AM 78.8 °F - 69.8 °F 74% 29.71 in 6.2 mi Variable 3.5 mph - N/A   Partly Cloudy
6:50 AM 78.8 °F - 69.8 °F 74% 29.71 in 5.6 mi SE 5.8 mph - N/A   Partly Cloudy
7:20 AM 80.6 °F 83.9 °F 69.8 °F 70% 29.71 in 6.2 mi SSE 6.9 mph - N/A   Partly Cloudy
7:50 AM 80.6 °F 84.6 °F 71.6 °F 74% 29.71 in 6.2 mi SSE 6.9 mph - N/A   Partly Cloudy
8:20 AM 82.4 °F 87.2 °F 71.6 °F 70% 29.71 in 6.2 mi SSE 6.9 mph - N/A   Partly Cloudy
8:50 AM 84.2 °F 90.9 °F 73.4 °F 70% 29.74 in 6.2 mi South 5.8 mph - N/A   Partly Cloudy
9:00 AM 84 °F - 73 °F 62% 29.74 in 6 mi SSE 5.8 mph - -   Scattered Clouds
9:20 AM 84.2 °F 90.9 °F 73.4 °F 70% 29.74 in 6.2 mi WSW 5.8 mph - N/A   Scattered Clouds
9:50 AM 86.0 °F 93.4 °F 73.4 °F 66% 29.74 in 6.2 mi SW 4.6 mph - N/A   Scattered Clouds
10:20 AM 87.8 °F 93.8 °F 71.6 °F 58% 29.74 in 6.2 mi West 6.9 mph - N/A   Partly Cloudy
10:50 AM 89.6 °F 96.2 °F 71.6 °F 55% 29.74 in 6.2 mi Variable 3.5 mph - N/A   Partly Cloudy
11:50 AM 89.6 °F 98.2 °F 73.4 °F 59% 29.74 in 6.2 mi WSW 11.5 mph - N/A   Scattered Clouds
12:00 PM 89 °F - 74 °F 52% 29.75 in 6 mi WSW 11.5 mph - -   Partly Cloudy
12:20 PM 89.6 °F 98.2 °F 73.4 °F 59% 29.74 in 6.2 mi West 9.2 mph - N/A   Partly Cloudy
12:50 PM 89.6 °F 98.2 °F 73.4 °F 59% 29.74 in 6.2 mi West 11.5 mph - N/A   Partly Cloudy
1:20 PM 91.4 °F 102.5 °F 75.2 °F 59% 29.74 in 6.2 mi West 11.5 mph - N/A   Partly Cloudy
1:50 PM 89.6 °F 98.2 °F 73.4 °F 59% 29.74 in 6.2 mi West 11.5 mph - N/A   Partly Cloudy
2:20 PM 91.4 °F 100.1 °F 73.4 °F 55% 29.74 in - West 11.5 mph - N/A   Clear
2:50 PM 89.6 °F 96.2 °F 71.6 °F 55% 29.74 in - West 10.4 mph - N/A   Clear
3:00 PM 90 °F - 73 °F 48% 29.73 in 6 mi West 11.5 mph - -  
3:20 PM 89.6 °F 96.2 °F 71.6 °F 55% 29.71 in - WNW 8.1 mph - N/A   Clear
3:50 PM 89.6 °F 98.2 °F 73.4 °F 59% 29.71 in - West 9.2 mph - N/A   Clear
4:20 PM 91.4 °F 98.4 °F 71.6 °F 52% 29.71 in - West 9.2 mph - N/A   Clear
4:50 PM 91.4 °F 100.1 °F 73.4 °F 55% 29.71 in - West 9.2 mph - N/A   Clear
5:20 PM 89.6 °F 98.2 °F 73.4 °F 59% 29.71 in - West 11.5 mph - N/A   Clear
5:50 PM 87.8 °F 95.6 °F 73.4 °F 62% 29.71 in - WNW 9.2 mph - N/A   Clear
6:00 PM 88 °F - 74 °F 55% 29.72 in 6 mi West 9.2 mph - -  
6:20 PM 87.8 °F 95.6 °F 73.4 °F 62% 29.71 in - WNW 9.2 mph - N/A   Clear
6:50 PM 86.0 °F 93.4 °F 73.4 °F 66% 29.71 in - West 9.2 mph - N/A   Clear
7:20 PM 86.0 °F 95.1 °F 75.2 °F 70% 29.74 in - WNW 9.2 mph - N/A   Clear
7:50 PM 84.2 °F 92.3 °F 75.2 °F 74% 29.74 in - WNW 6.9 mph - N/A   Clear
8:20 PM 84.2 °F 92.3 °F 75.2 °F 74% 29.74 in - WNW 6.9 mph - N/A   Clear
8:50 PM 84.2 °F 92.3 °F 75.2 °F 74% 29.74 in - WNW 4.6 mph - N/A   Clear
9:00 PM 84 °F - 75 °F 67% 29.76 in 6 mi WNW 4.6 mph - -  
9:20 PM 84.2 °F 92.3 °F 75.2 °F 74% 29.77 in - Variable 3.5 mph - N/A   Clear
9:50 PM 82.4 °F 89.5 °F 75.2 °F 79% 29.77 in - Variable 3.5 mph - N/A   Clear
10:20 PM 82.4 °F 89.5 °F 75.2 °F 79% 29.77 in - Variable 2.3 mph - N/A   Clear
10:50 PM 82.4 °F 89.5 °F 75.2 °F 79% 29.77 in - Variable 3.5 mph - N/A   Clear
11:20 PM 82.4 °F 89.5 °F 75.2 °F 79% 29.77 in - WNW 4.6 mph - N/A   Clear
11:50 PM 82.4 °F 89.5 °F 75.2 °F 79% 29.77 in 6.2 mi Variable 2.3 mph - N/A   Scattered Clouds